GREENCUBE (53106 NORAD) Tracking and Keplerian Element Data

This shows tracking and keplerian element data for the satellite.

Feedback or suggestion? Click here.




ElementValue
Catalog53106
NameGREENCUBE
Epoch Orbit825
Epoch Day323.09002148
Epoch Year2022
RAAN32.7128
Inclination70.1752
Eccentricity0.0008932
Argument of Perigee231.1104
Mean Anonmoly128.8759
Mean Motion6.42557452
Decay Rate-3E-08
L11 53106U 22080B 22323.09002148 -.00000003 00000+0 00000+0 0 9995
L22 53106 70.1752 32.7128 0008932 231.1104 128.8759 6.42557452 8251



Live tracking and technical data element details for GREENCUBE (NORAD 53106). GREENCUBE can be tracked NOW for your location showing map with azimuth and elevation plus other details from your city location.







IsCatalogInMostPopularTable: catalog: 53106, numindb: 53
Update: records affected: 1



GetName: 53106 GREENCUBE

Hit Count: updated at: Fri, 02 Dec 2022 14:12:09 GMT